This is the latest recevied weather packets stored in our database for station/object DW2488. If no packets are shown the sender has not sent any weather packets the latest 10 day(s).
| Time | Temp. | Humidity | Pressure | Rain* | Wind** | Luminosity | Snow |
|---|---|---|---|---|---|---|---|
| 1777440432 | 25° C | 46% | 1027.9 hPa | 0 mm | - | 301 W/m² | - |
| 1777439535 | 25° C | 46% | 1028 hPa | 0 mm | - | 322 W/m² | - |
| 1777438634 | 25.56° C | 47% | 1028 hPa | 0 mm | - | 366 W/m² | - |
| 1777437737 | 25.56° C | 46% | 1027.8 hPa | 0 mm | - | 462 W/m² | - |
| 1777436835 | 25° C | 46% | 1027.8 hPa | 0 mm | - | 468 W/m² | - |
| 1777435937 | 25.56° C | 45% | 1027.8 hPa | 0 mm | - | 207 W/m² | - |
| 1777435031 | 25.56° C | 45% | 1027.7 hPa | 0 mm | - | 72 W/m² | - |
| 1777434138 | 26.11° C | 45% | 1027.8 hPa | 0 mm | - | 503 W/m² | - |
| 1777433237 | 25.56° C | 47% | 1027.9 hPa | 0 mm | - | 548 W/m² | - |
| 1777432332 | 25.56° C | 48% | 1028 hPa | 0 mm | - | 564 W/m² | - |
| 1777431431 | 25.56° C | 48% | 1028 hPa | 0 mm | - | 606 W/m² | - |
| 1777430536 | 25.56° C | 51% | 1028.2 hPa | 0 mm | - | 526 W/m² | - |
| 1777429637 | 25° C | 54% | 1028.4 hPa | 0 mm | - | 629 W/m² | - |
| 1777428732 | 25° C | 51% | 1028.6 hPa | 0 mm | - | 679 W/m² | - |
| 1777427832 | 25° C | 54% | 1028.8 hPa | 0 mm | - | 684 W/m² | - |
| 1777426932 | 24.44° C | 58% | 1029 hPa | 0 mm | - | 657 W/m² | - |
| 1777426037 | 23.89° C | 55% | 1029 hPa | 0 mm | - | 629 W/m² | - |
| 1777425133 | 23.33° C | 58% | 1029.2 hPa | 0 mm | - | 638 W/m² | - |
| 1777424232 | 22.78° C | 59% | 1029.3 hPa | 0 mm | - | 679 W/m² | - |
| 1777423332 | 22.22° C | 59% | 1029.6 hPa | 0 mm | - | 596 W/m² | - |
| 1777422437 | 21.67° C | 60% | 1029.7 hPa | 0 mm | - | 462 W/m² | - |
| 1777421530 | 21.11° C | 63% | 1029.5 hPa | 0 mm | - | 420 W/m² | - |
| 1777420632 | 20° C | 66% | 1029.3 hPa | 0 mm | - | 436 W/m² | - |
| 1777419736 | 18.89° C | 68% | 1029.4 hPa | 0 mm | - | 563 W/m² | - |
| 1777418830 | 17.78° C | 71% | 1029.2 hPa | 0 mm | - | 541 W/m² | - |
* Rain latest hour (hover to see other rain measurements)
** Current wind speed in m/s (hover to see current wind gust speed)